Hourly Data Report for March 10, 2012

All times are specified in Local Standard Time (LST). Add 1 hour to adjust for Daylight Saving Time where and when it is observed.

Metadata including Station Name, Province, Latitude, Longitude, Elevation, Climate ID, WMO ID, TC ID
CHARLOTTETOWN A
PRINCE EDWARD ISLAND
Latitude: 46°17'19.020" N Longitude: 63°07'43.070" W Elevation: 48.80 m
Climate ID: 8300300 WMO ID: 71706 TC ID: YYG
Hourly Data Report for March 10, 2012
Temp Definition
°C

Dew Point Temp Definition
°C

Rel Hum Definition
%

Wind Dir Definition
10's deg
Wind Spd Definition
km/h

Visibility Definition
km

Stn Press Definition
kPa

Hmdx Definition

Wind Chill Definition

Weather Definition

TIME
00:00 -3.3 -10.2 59 34 4 24.1 101.28 -5 Clear
01:00 -3.6 -9.4 64 1 9 24.1 101.35 -7 Mainly Clear
02:00 -3.7 -11.3 56 35 9 24.1 101.43 -7 Clear
03:00 -4.0 -11.4 56 34 9 24.1 101.45 -8 Clear
04:00 -4.5 -11.1 60 34 7 24.1 101.55 -8 Clear
05:00 -4.8 -11.2 61 36 11 24.1 101.64 -9 Clear
06:00 -4.9 -11.4 60 34 9 24.1 101.72 -9 Clear
07:00 -5.1 -11.5 61 34 9 24.1 101.81 -9 Mainly Clear
08:00 -3.8 -10.1 62 1 11 24.1 101.89 -8 Mainly Clear
09:00 -3.1 -10.7 56 36 19 24.1 101.97 -9 Mainly Clear
10:00 -2.6 -10.2 56 1 15 24.1 102.05 -8 Mainly Clear
11:00 -2.6 -11.4 51 36 9 24.1 102.15 -6 Mainly Clear
12:00 -2.7 -10.7 54 36 11 24.1 102.16 -7 Mostly Cloudy
13:00 -2.6 -9.9 57 36 11 24.1 102.18 -7 Mostly Cloudy
14:00 -2.5 -10.9 52 34 15 24.1 102.19 -7 Mostly Cloudy
15:00 -2.7 -10.9 53 2 15 24.1 102.24 -8 Mostly Cloudy
16:00 -3.2 -10.3 58 36 11 24.1 102.28 -7 Mainly Clear
17:00 -3.5 -10.5 58 1 11 24.1 102.35 -8 Mainly Clear
18:00 -4.3 -10.8 60 36 9 24.1 102.41 -8 Mainly Clear
19:00 -5.3 -11.4 62 36 4 24.1 102.48 -7 Clear
20:00 -6.5 -10.7 72 10 4 24.1 102.49 -8 Clear
21:00 -6.8 -10.8 73 9 4 24.1 102.49 -9 Clear
22:00 -7.1 -10.4 77   0 24.1 102.53 Clear
23:00 -9.6 -12.3 81 36 4 24.1 102.57 -12 Clear

Notes on Data Quality.

Legend
  • E = Estimated
  • M = Missing
  • NA = Not Available
  • ‡ = Partner data that is not subject to review by the National Climate Archives